Location: Unspecified
(0.0000°N, 0.0000°E)
Time: 19:05:45
(UTC+00:00)

ISS - Visible Passes

Search period start: 26 February 2017 00:00
Search period end: 08 March 2017 00:00
Orbit: 399 x 408 km, 51.6° (Epoch: 27 February)

Date Brightness Start Highest point End Pass type
(mag) Time Alt. Az. Time Alt. Az. Time Alt. Az.
26 Feb -0.1 04:12:17 14° ESE 04:12:17 14° ESE 04:13:38 10° E visible
26 Feb -1.6 05:45:48 10° W 05:47:56 16° NW 05:50:04 10° NNW visible
27 Feb -2.1 04:56:38 29° N 04:56:38 29° N 04:58:35 10° NNE visible
